[[{"header":{"parameterUnit":"m.s-1","parameterCategory":1,"la1":30.2991,"la2":30.254,"lo1":-89.0895,"lo2":-89.0444,"dy":0.0017,"dx":0.0017,"nx":28,"ny":28,"refTime":"2024-07-10T09:00:00:Z","depth":0,"parameterNumber":2,"parameterNumberName":"U-component_of_WINDS"},"data":[0,0,0,0,0,0,0,0,0,0,0,0,0,0,0,0,0,0,0,0,0,0,0,0,0,0,0,0,0,0,0,0,0,0,0,0,0,0,0,0,0,0,0,0,0,0,0,0,0,0,0,0,0,0,0,0,0,0,3.1267,3.1268,0,3.1339,3.134,3.1341,3.1281,3.1278,3.1276,3.1274,3.1348,3.1352,3.1356,0,0,0,0,0,0,0,0,0,0,0,0,0,3.1077,3.1081,3.1267,3.1268,3.1269,3.1339,3.134,3.1341,3.1281,3.1278,3.1275,3.1272,3.1346,3.1351,3.1357,0,0,0,0,0,0,0,0,0,0,0,0,0,3.1155,3.1082,3.1267,3.1248,3.1247,3.1339,3.134,3.1341,3.1282,3.1278,3.1275,3.1271,3.1345,3.1351,3.1357,3.1472,0,0,3.1377,3.138,0,0,0,0,0,0,0,0,3.1151,3.1162,3.125,3.1249,3.1248,3.1297,3.13,3.1385,3.1283,3.1269,3.1274,3.1269,3.1334,3.1341,3.1363,3.1476,3.1479,3.1378,3.1381,3.1384,3.1386,0,0,0,0,0,0,0,3.1145,3.1159,3.1295,3.1251,3.125,3.1235,3.1242,3.1316,3.1321,3.127,3.1265,3.1275,3.1333,3.1357,3.1364,3.148,3.1377,3.1383,3.1387,3.139,3.1688,3.1692,0,0,0,0,0,0,3.1142,3.1155,3.1293,3.1298,3.1189,3.1241,3.1249,3.1285,3.132,3.1322,3.1278,3.1272,3.1348,3.1357,3.1366,3.1501,3.1384,3.139,3.1394,3.1684,3.1689,3.1693,0,0,0,0,0,0,3.1138,3.1155,3.129,3.1225,3.1241,3.1249,3.129,3.1289,3.1312,3.1327,3.1327,3.1301,3.1345,3.1357,3.1446,3.1503,3.1393,3.1399,3.1679,3.1685,3.1691,3.1773,0,0,0,0,0,0,3.1133,3.1154,3.1198,3.1226,3.1245,3.1369,3.1293,3.1293,3.1324,3.1316,3.1349,3.1351,3.1343,3.1436,3.1452,3.151,3.1404,3.1674,3.1682,3.1689,3.1765,3.1781,3.1795,0,0,0,0,0,3.1126,3.1219,3.1201,3.1218,3.13,3.1372,3.1383,3.1372,3.1329,3.1372,3.1381,3.135,3.1495,3.1446,3.1463,3.1524,3.167,3.168,3.1688,3.1759,3.1778,3.1794,0,0,0,0,0,0,3.1198,3.1223,3.1202,3.1307,3.1338,3.1362,3.1417,3.1393,3.1437,3.1428,3.1413,3.1421,3.1514,3.1528,3.1473,3.1635,3.1575,3.1588,3.1623,3.1641,3.1656,3.165,3.1409,0,0,0,0,0,3.1226,3.1282,3.1301,3.1391,3.1408,3.141,3.1441,3.143,3.1461,3.1474,3.149,3.1521,3.1573,3.1608,3.1658,3.1767,3.1772,3.1817,3.1832,3.1844,3.1855,3.1912,3.1931,3.1723,3.1723,3.1723,0,0,3.1284,3.1304,3.1341,3.1406,3.1429,3.1487,3.1422,3.1487,3.1529,3.1484,3.1568,3.158,3.1614,3.1713,3.1758,3.1728,3.1914,3.1856,3.1865,3.187,3.1923,3.1943,3.196,3.1729,3.1728,3.1727,0,0,3.1419,3.1442,3.1518,3.1542,3.1576,3.1577,3.1595,3.1623,3.1629,3.1713,3.168,3.173,3.1822,3.1846,3.1871,3.2014,3.1986,3.2031,3.2108,3.2163,3.2179,3.2194,3.2243,3.2261,3.2042,3.2042,3.2042,0,3.1487,3.1574,3.1561,3.1627,3.1656,3.1617,3.1694,3.1718,3.1767,3.1787,3.1753,3.1865,3.1886,3.1989,3.2023,3.2045,3.2065,3.2026,3.2178,3.2192,3.2206,3.2252,3.2271,3.2047,3.2047,3.2046,3.2046,0,3.1655,3.1715,3.1773,3.182,3.1855,3.1927,3.1924,3.1961,3.1946,3.195,3.2035,3.2058,3.211,3.2134,3.2121,3.2235,3.2215,3.218,3.2119,3.2231,3.2274,3.2292,3.2054,3.2053,3.2051,3.205,0,0,3.1837,3.1875,3.1896,3.1916,3.1951,3.1997,3.2067,3.2117,3.2148,3.2183,3.224,3.2317,3.2284,3.2312,3.2302,3.2351,3.246,3.2309,3.231,3.2335,3.2584,3.2609,3.263,3.2442,3.2445,3.2448,3.258,0,3.1972,3.2092,3.2081,3.2195,3.2249,3.2212,3.2272,3.23,3.2305,3.2352,3.2358,3.2412,3.2365,3.2382,3.2429,3.2437,3.2509,3.2427,3.2493,3.2495,3.2484,3.2653,3.2679,3.2803,3.2597,3.26,3.2602,0,3.2146,3.2186,3.2305,3.2329,3.2351,3.2406,3.2449,3.2495,3.2525,3.2525,3.2556,3.2536,3.2605,3.2543,3.2636,3.2581,3.2607,3.2615,3.2619,3.2624,3.2554,3.266,3.2843,3.2861,3.2629,3.2627,3.2625,0,3.2265,3.2348,3.2429,3.2448,3.2479,3.2517,3.2532,3.2558,3.2589,3.2627,3.2646,3.2693,3.2718,3.2754,3.2747,3.2704,3.2842,3.278,3.2843,3.2843,3.2873,3.2871,3.3061,3.2893,3.2893,3.2892,3.2892,0,3.2416,3.249,3.2483,3.2533,3.2613,3.26,3.268,3.269,3.2713,3.2763,3.2735,3.2783,3.2772,3.2819,3.2814,3.2891,3.2903,3.2905,3.2902,3.2906,3.2906,3.2922,3.2913,3.2897,3.2896,3.2895,3.2894,0,3.2562,3.2561,3.2646,3.2668,3.2675,3.2733,3.2752,3.2798,3.28,3.2864,3.2879,3.2883,3.2937,3.2934,3.2996,3.2992,3.3086,3.3075,3.3076,3.3073,3.3135,3.3128,3.3341,3.3367,3.3184,3.3185,3.3187,0,3.2658,3.2713,3.274,3.2772,3.2788,3.284,3.287,3.2859,3.2891,3.2928,3.297,3.3021,3.3061,3.3149,3.3157,3.3204,3.3192,3.3263,3.3199,3.32,3.3191,3.3187,3.3191,3.3276,3.3278,3.3279,3.3281,0,3.2827,3.2823,3.2868,3.2912,3.2948,3.2983,3.3014,3.3041,3.3033,3.3071,3.3125,3.3156,3.3218,3.3269,3.3313,3.3327,3.3303,3.3301,3.3317,3.3321,3.3319,3.3319,3.3108,3.3296,3.3294,3.3293,3.3292,3.3292,3.2949,3.2996,3.3022,3.3072,3.3094,3.3123,3.3167,3.3175,3.322,3.3268,3.3259,3.332,3.3346,3.3402,3.3421,3.3468,3.3442,3.3467,3.3473,3.3479,3.3485,3.3313,3.3476,3.3476,3.3475,3.3475,3.3475,0,3.3115,3.313,3.3176,3.322,3.3259,3.3232,3.3264,3.3299,3.3352,3.3379,3.3419,3.348,3.3529,3.3541,3.3587,3.3622,3.3612,3.3634,3.3631,3.3634,3.3506,3.3486,3.3642,3.3642,3.3642,3.3642,3.3642,3.3642,3.3206,3.3283,3.3282,3.3368,3.3382,3.3441,3.3462,3.3488,3.3509,3.3579,3.3619,3.3626,3.3646,3.3693,3.3736,3.3738,3.3756,3.3783,3.3781,3.366,3.3644,3.3628,3.3609,3.3787,3.3788,3.3904,3.3906,3.3906]},{"header":{"parameterUnit":"m.s-1","parameterCategory":1,"la1":30.2991,"la2":30.254,"lo1":-89.0895,"lo2":-89.0444,"dy":0.0017,"dx":0.0017,"nx":28,"ny":28,"refTime":"2024-07-10T09:00:00:Z","depth":0,"parameterNumber":3,"parameterNumberName":"V-component_of_WINDS"},"data":[0,0,0,0,0,0,0,0,0,0,0,0,0,0,0,0,0,0,0,0,0,0,0,0,0,0,0,0,0,0,0,0,0,0,0,0,0,0,0,0,0,0,0,0,0,0,0,0,0,0,0,0,0,0,0,0,0,0,1.029,1.029,0,1.0232,1.0231,1.0231,1.0189,1.0189,1.0189,1.0189,1.0128,1.0127,1.0125,0,0,0,0,0,0,0,0,0,0,0,0,0,1.0362,1.0361,1.029,1.029,1.0289,1.0232,1.0231,1.0231,1.019,1.0189,1.0189,1.0188,1.0128,1.0127,1.0125,0,0,0,0,0,0,0,0,0,0,0,0,0,1.032,1.036,1.029,1.0262,1.0258,1.0232,1.0231,1.023,1.019,1.0189,1.0189,1.0188,1.0129,1.0127,1.0125,1.0123,0,0,1.0119,1.0118,0,0,0,0,0,0,0,0,1.0322,1.0317,1.0266,1.0263,1.026,1.0218,1.0234,1.0194,1.019,1.0216,1.0189,1.0188,1.0158,1.0154,1.0144,1.012,1.0117,1.0119,1.0118,1.0117,1.0116,0,0,0,0,0,0,0,1.0325,1.032,1.0267,1.0266,1.0262,1.025,1.0244,1.0227,1.019,1.0213,1.021,1.0204,1.0156,1.0146,1.0142,1.0116,1.0119,1.0117,1.0116,1.0115,1.0083,1.0083,0,0,0,0,0,0,1.0333,1.0322,1.0269,1.0265,1.0291,1.0249,1.0242,1.0232,1.019,1.0184,1.0204,1.0202,1.0149,1.0144,1.014,1.0132,1.0117,1.0115,1.0114,1.0083,1.0083,1.0084,0,0,0,0,0,0,1.0335,1.0329,1.0271,1.0293,1.0285,1.0249,1.0237,1.0231,1.022,1.0184,1.0177,1.0201,1.0149,1.0142,1.0126,1.0129,1.0114,1.0112,1.0082,1.0083,1.0083,1.0118,0,0,0,0,0,0,1.0337,1.033,1.033,1.0293,1.0284,1.026,1.0237,1.023,1.0217,1.0214,1.0178,1.0172,1.0148,1.0129,1.0124,1.0126,1.0111,1.0082,1.0083,1.0083,1.0117,1.012,1.0123,0,0,0,0,0,1.034,1.0342,1.033,1.0324,1.0283,1.0261,1.0255,1.0228,1.0218,1.0216,1.0192,1.0173,1.013,1.0128,1.0122,1.0124,1.0082,1.0082,1.0083,1.0115,1.0119,1.0123,0,0,0,0,0,0,1.038,1.0337,1.0323,1.0314,1.0291,1.0254,1.0252,1.0233,1.0213,1.0211,1.0177,1.0169,1.0156,1.0138,1.0137,1.0117,1.0103,1.0103,1.013,1.0133,1.0136,1.0141,1.0109,0,0,0,0,0,1.0388,1.0375,1.0337,1.0333,1.0322,1.0289,1.0278,1.0258,1.0234,1.0224,1.0198,1.0174,1.0154,1.0143,1.0123,1.0113,1.0104,1.0111,1.0114,1.0116,1.0117,1.0107,1.0109,1.0086,1.0086,1.0086,0,0,1.0405,1.0379,1.0373,1.034,1.032,1.0305,1.0281,1.0267,1.0255,1.0221,1.0204,1.0185,1.0155,1.0141,1.0134,1.0126,1.012,1.0117,1.012,1.0118,1.0108,1.011,1.0112,1.0086,1.0086,1.0086,0,0,1.0426,1.0407,1.0399,1.0379,1.0349,1.0327,1.0325,1.0289,1.0275,1.0257,1.023,1.0215,1.0183,1.0162,1.0147,1.0157,1.0138,1.0151,1.0167,1.0158,1.016,1.0161,1.0163,1.0164,1.0151,1.0151,1.0151,0,1.045,1.0428,1.0398,1.0385,1.037,1.0338,1.0329,1.0311,1.0276,1.0266,1.0257,1.0214,1.0192,1.0171,1.0173,1.0163,1.0158,1.0156,1.0162,1.0163,1.0164,1.0165,1.0166,1.0153,1.0153,1.0153,1.0152,0,1.0458,1.0442,1.044,1.0406,1.0391,1.0381,1.0347,1.0335,1.0316,1.0293,1.0274,1.0245,1.0218,1.0212,1.0193,1.0187,1.0183,1.0169,1.0154,1.0169,1.0169,1.0169,1.0156,1.0155,1.0154,1.0154,0,0,1.0506,1.0454,1.0453,1.0436,1.0399,1.0386,1.0372,1.0345,1.0334,1.031,1.0297,1.0268,1.0253,1.0237,1.0215,1.0207,1.0214,1.0193,1.0192,1.0197,1.0203,1.0214,1.0215,1.02,1.02,1.02,1.0205,0,1.0521,1.0497,1.0467,1.0452,1.0436,1.0403,1.039,1.0365,1.0343,1.0324,1.0299,1.0279,1.0262,1.0251,1.0242,1.0215,1.0214,1.0214,1.0186,1.0185,1.0194,1.0215,1.0228,1.0234,1.0205,1.0205,1.0205,0,1.0537,1.0514,1.0497,1.0458,1.045,1.044,1.0411,1.0394,1.0364,1.0347,1.0327,1.0303,1.0284,1.0271,1.0243,1.0244,1.023,1.0214,1.0213,1.021,1.0196,1.0212,1.0235,1.0236,1.0205,1.0205,1.0205,0,1.0572,1.0537,1.0521,1.0508,1.0463,1.0455,1.0436,1.0405,1.0389,1.0364,1.0353,1.0325,1.031,1.0288,1.0256,1.0249,1.023,1.0215,1.0215,1.0216,1.0214,1.0214,1.0234,1.0205,1.0205,1.0205,1.0205,0,1.0593,1.0583,1.0536,1.0526,1.0513,1.0479,1.0466,1.0444,1.0416,1.0399,1.0369,1.0354,1.0313,1.0292,1.0267,1.0246,1.024,1.0225,1.0218,1.0228,1.0229,1.0218,1.0217,1.0205,1.0205,1.0205,1.0205,0,1.0631,1.0599,1.0579,1.0537,1.0526,1.0519,1.0482,1.047,1.0445,1.0424,1.0417,1.0377,1.0351,1.0317,1.028,1.0262,1.0244,1.0234,1.0255,1.0251,1.0253,1.0253,1.0267,1.0266,1.0238,1.0238,1.0239,0,1.0646,1.0637,1.0594,1.0581,1.0563,1.0543,1.0526,1.049,1.0474,1.0436,1.0429,1.04,1.0375,1.0334,1.0301,1.0271,1.026,1.0266,1.0255,1.0264,1.0258,1.0259,1.0257,1.027,1.027,1.0271,1.0271,0,1.0675,1.0659,1.0638,1.0609,1.0591,1.0566,1.0541,1.0532,1.049,1.0473,1.0446,1.0426,1.0387,1.0358,1.0324,1.0302,1.0279,1.0274,1.0273,1.0282,1.0294,1.0286,1.0262,1.0275,1.0274,1.0274,1.0274,1.0274,1.0701,1.0692,1.0659,1.0635,1.0611,1.0587,1.0573,1.0546,1.0523,1.0489,1.0468,1.0441,1.0407,1.0358,1.0336,1.0313,1.0305,1.0303,1.0302,1.0302,1.0304,1.0298,1.0307,1.0307,1.0306,1.0306,1.0306,0,1.0729,1.0705,1.0683,1.0648,1.0628,1.0608,1.0578,1.0562,1.0539,1.0509,1.0485,1.0452,1.0423,1.0386,1.0353,1.0341,1.033,1.0334,1.0334,1.0329,1.0314,1.0319,1.0344,1.0344,1.0344,1.0344,1.0344,1.0344,1.074,1.0722,1.0702,1.067,1.0646,1.062,1.0604,1.058,1.0556,1.0521,1.0497,1.0473,1.0439,1.0403,1.0375,1.0364,1.0353,1.036,1.0347,1.0334,1.0331,1.0327,1.0331,1.0359,1.0359,1.0363,1.0363,1.0363]}]]